Home   Weather   Houmt Souk (Djerba)   Past weeks

Flag for Tunisia Past Weather in Houmt Souk (Djerba), Tunisia — Yesterday and Last 2 Weeks

Now
63 °F

Scattered clouds.


Feels Like: 63 °F
Forecast: 57 / 69 °F
Wind: 23 mph from North

Location: Djerba Mellita

Current Time: Apr 29, 2017 at 6:49:35 am

Latest Report: Apr 29, 2017 at 6:00 am


Visibility: 4 mi

Pressure: 29.83 "Hg

Humidity: 73%

Dew Point: 54 °F

Location of Houmt Souk (Djerba)Location

Past Weather in Houmt Souk (Djerba) — Graph

°F

Houmt Souk (Djerba) Temperature Yesterday

Maximum temperature yesterday: 88 °F (at 11:30 am)
Minimum temperature yesterday: 63 °F (at 5:30 am)
Average temperature yesterday: 74 °F

High & Low Weather Summary for the Past Weeks

 TemperatureHumidityPressure
High88 °F (Apr 28, 11:30 am)94% (Apr 15, 6:00 am)30.30 "Hg (Apr 15, 6:00 am)
Low48 °F (Apr 23, 6:00 am)22% (Apr 15, 3:30 pm)29.62 "Hg (Apr 28, 4:00 pm)
Average66 °F63%29.98 "Hg
* Reported Apr 14 5:00 am — Apr 29 5:30 am, Houmt Souk (Djerba), Weather by CustomWeather, © 2017

Note: Actual official high and low records may vary slightly from our data, if they occured in-between our weather recording intervals... More about our weather records

Advertising

Houmt Souk (Djerba) Weather History for the Previous 24 Hours

Scroll right to see more
 ConditionsComfort  
Time TempWeatherWind HumidityBarometerVisibility
5:30 am
Sat, Apr 29
63 °FScattered clouds.22 mph73%29.83 "Hg4 mi
5:00 am63 °FPassing clouds.24 mph73%29.80 "Hg4 mi
4:30 am63 °FPassing clouds.22 mph73%29.77 "Hg3 mi
4:00 am63 °FPassing clouds.24 mph73%29.77 "Hg3 mi
3:30 am63 °FPassing clouds.24 mph77%29.77 "Hg3 mi
3:00 am64 °FPassing clouds.24 mph78%29.77 "Hg3 mi
2:30 am64 °FPassing clouds.25 mph78%29.77 "Hg3 mi
2:00 am64 °FPassing clouds.28 mph78%29.74 "Hg3 mi
1:30 am66 °FPassing clouds.28 mph78%29.74 "Hg3 mi
1:00 am66 °FPassing clouds.26 mph78%29.74 "Hg3 mi
12:30 am66 °FPassing clouds.25 mph83%29.74 "Hg3 mi
12:00 am66 °FPassing clouds.28 mph83%29.71 "Hg3 mi
11:30 pm
Fri, Apr 28
66 °FSandstorm.26 mph83%29.74 "Hg2 mi
11:00 pm66 °FSandstorm.25 mph83%29.71 "Hg2 mi
10:30 pm66 °FSandstorm.26 mph83%29.71 "Hg2 mi
10:00 pm68 °FSandstorm.25 mph83%29.71 "Hg1 mi
9:30 pm68 °FSandstorm.26 mph78%29.68 "Hg1 mi
9:00 pm68 °FSandstorm.25 mph78%29.71 "Hg1 mi
8:30 pm70 °FClear.23 mph78%29.68 "Hg1 mi
8:00 pm73 °FClear.17 mph61%29.65 "Hg1 mi
7:30 pm73 °FSandstorm.17 mph61%29.65 "Hg1 mi
7:00 pm79 °FHaze.17 mph42%29.62 "Hg1 mi
6:30 pm81 °FHaze.18 mph39%29.62 "Hg1 mi
6:00 pm81 °FHaze.18 mph39%29.62 "Hg1 mi
5:30 pm82 °FHaze.18 mph35%29.62 "Hg1 mi
5:00 pm84 °FHaze.22 mph31%29.62 "Hg1 mi
4:30 pm86 °FHaze.20 mph29%29.62 "Hg2 mi
4:00 pm86 °FHaze.25 mph29%29.62 "Hg2 mi
3:00 pm88 °FClear.24 mph27%29.65 "Hg3 mi
2:00 pm86 °FClear.20 mph33%29.71 "Hg4 mi
1:30 pm88 °FClear.15 mph31%29.71 "Hg4 mi
1:00 pm86 °FClear.12 mph35%29.74 "Hg4 mi
12:30 pm88 °FClear.13 mph33%29.74 "Hg4 mi
12:00 pm88 °FClear.14 mph31%29.74 "Hg4 mi
11:30 am88 °FClear.14 mph29%29.74 "Hg4 mi
11:00 am86 °FClear.13 mph33%29.77 "Hg4 mi
10:30 am84 °FClear.14 mph35%29.77 "Hg4 mi
10:00 am82 °FClear.13 mph40%29.77 "Hg4 mi
9:30 am81 °FClear.10 mph42%29.80 "Hg4 mi
8:30 am73 °FClear.10 mph65%29.80 "Hg3 mi
8:00 am70 °FClear.6 mph78%29.80 "Hg3 mi
7:30 am68 °FClear.6 mph83%29.80 "Hg3 mi
7:00 am66 °FClear.3 mph88%29.80 "Hg3 mi
6:30 am63 °FClear.3 mph94%29.80 "Hg3 mi
6:00 am63 °FClear.7 mph88%29.77 "Hg3 mi
Weather by CustomWeather, © 2017

See weather overviewHow to use our weather pages